TimeEST,TemperatureF,Dew PointF,Humidity,Sea Level PressureIn,VisibilityMPH,Wind Direction,Wind SpeedMPH,Gust SpeedMPH,PrecipitationIn,Events,Conditions,WindDirDegrees,DateUTC
12:15 AM,25.2,9.3,51,30.26,10.0,West,12.7,-,N/A,,Clear,270,2013-02-02 05:15:00
12:35 AM,24.8,8.8,51,30.26,10.0,West,9.2,19.6,N/A,,Clear,280,2013-02-02 05:35:00
12:55 AM,24.8,8.4,50,30.26,10.0,West,11.5,-,N/A,,Clear,260,2013-02-02 05:55:00
1:15 AM,24.6,8.2,50,30.27,10.0,West,12.7,19.6,N/A,,Clear,270,2013-02-02 06:15:00
1:35 AM,24.4,8.2,50,30.27,10.0,West,10.4,-,N/A,,Clear,270,2013-02-02 06:35:00
1:55 AM,23.9,8.1,51,30.28,10.0,West,9.2,17.3,N/A,,Clear,270,2013-02-02 06:55:00
2:15 AM,23.7,8.1,51,30.28,10.0,West,10.4,18.4,N/A,,Clear,270,2013-02-02 07:15:00
2:55 AM,23.4,7.7,51,30.29,10.0,West,10.4,-,N/A,,Clear,270,2013-02-02 07:55:00
3:15 AM,23.0,7.5,52,30.30,10.0,West,11.5,18.4,N/A,,Clear,270,2013-02-02 08:15:00
3:35 AM,22.6,7.3,52,30.30,10.0,West,8.1,18.4,N/A,,Clear,260,2013-02-02 08:35:00
3:55 AM,22.3,7.3,53,30.30,10.0,West,9.2,18.4,N/A,,Clear,270,2013-02-02 08:55:00
4:15 AM,22.3,6.8,52,30.30,10.0,West,11.5,-,N/A,,Clear,280,2013-02-02 09:15:00
4:35 AM,22.1,7.0,52,30.30,10.0,West,6.9,-,N/A,,Clear,270,2013-02-02 09:35:00
4:55 AM,21.7,7.5,54,30.30,10.0,West,6.9,-,N/A,,Clear,270,2013-02-02 09:55:00
5:15 AM,21.6,7.2,54,30.30,10.0,West,8.1,18.4,N/A,,Clear,280,2013-02-02 10:15:00
5:35 AM,21.2,7.2,55,30.29,10.0,West,10.4,-,N/A,,Clear,280,2013-02-02 10:35:00
5:55 AM,21.0,7.5,56,30.29,10.0,West,11.5,-,N/A,,Clear,270,2013-02-02 10:55:00
6:15 AM,21.0,7.7,56,30.29,10.0,West,9.2,-,N/A,,Clear,270,2013-02-02 11:15:00
6:35 AM,20.8,8.1,58,30.30,10.0,West,9.2,-,N/A,,Clear,270,2013-02-02 11:35:00
7:15 AM,20.7,7.9,58,30.32,10.0,West,6.9,-,N/A,,Clear,270,2013-02-02 12:15:00
7:35 AM,20.7,8.2,59,30.32,10.0,West,3.5,-,N/A,,Clear,260,2013-02-02 12:35:00
7:55 AM,21.0,8.8,59,30.32,10.0,West,9.2,-,N/A,,Clear,270,2013-02-02 12:55:00
8:15 AM,21.2,8.8,59,30.32,10.0,West,6.9,-,N/A,,Clear,270,2013-02-02 13:15:00
8:35 AM,22.1,9.0,57,30.32,10.0,WNW,4.6,-,N/A,,Clear,290,2013-02-02 13:35:00
8:55 AM,22.6,8.8,55,30.32,10.0,West,8.1,-,N/A,,Clear,280,2013-02-02 13:55:00
9:15 AM,22.8,8.4,54,30.32,10.0,West,5.8,-,N/A,,Clear,260,2013-02-02 14:15:00
9:35 AM,23.7,7.9,51,30.31,10.0,West,6.9,-,N/A,,Clear,260,2013-02-02 14:35:00
9:55 AM,24.6,7.9,49,30.30,10.0,WSW,4.6,-,N/A,,Clear,250,2013-02-02 14:55:00
10:15 AM,25.0,7.5,48,30.29,10.0,West,4.6,-,N/A,,Clear,270,2013-02-02 15:15:00
10:35 AM,25.5,6.1,44,30.29,10.0,WSW,4.6,-,N/A,,Clear,240,2013-02-02 15:35:00
10:55 AM,26.4,6.4,43,30.27,10.0,West,4.6,-,N/A,,Clear,260,2013-02-02 15:55:00
11:15 AM,27.9,5.7,39,30.27,10.0,WSW,5.8,-,N/A,,Clear,240,2013-02-02 16:15:00
11:35 AM,28.8,5.7,38,30.26,10.0,WSW,8.1,-,N/A,,Clear,250,2013-02-02 16:35:00
11:55 AM,28.8,4.5,36,30.24,10.0,SW,6.9,-,N/A,,Clear,220,2013-02-02 16:55:00
12:15 PM,30.0,4.3,34,30.23,10.0,WSW,9.2,-,N/A,,Clear,240,2013-02-02 17:15:00
12:35 PM,29.3,4.8,35,30.22,10.0,WSW,6.9,-,N/A,,Scattered Clouds,240,2013-02-02 17:35:00
12:55 PM,30.0,4.5,34,30.21,10.0,SW,6.9,18.4,N/A,,Scattered Clouds,230,2013-02-02 17:55:00
1:15 PM,30.7,5.2,34,30.19,10.0,WSW,8.1,-,N/A,,Clear,240,2013-02-02 18:15:00
1:35 PM,30.7,5.2,34,30.18,10.0,SW,5.8,-,N/A,,Scattered Clouds,230,2013-02-02 18:35:00
1:55 PM,31.6,5.7,34,30.17,10.0,SSW,3.5,-,N/A,,Clear,210,2013-02-02 18:55:00
2:15 PM,32.0,5.0,32,30.16,10.0,WSW,11.5,-,N/A,,Scattered Clouds,250,2013-02-02 19:15:00
2:35 PM,31.8,4.8,32,30.15,10.0,West,8.1,17.3,N/A,,Mostly Cloudy,260,2013-02-02 19:35:00
2:55 PM,31.8,5.5,33,30.15,10.0,West,12.7,-,N/A,,Scattered Clouds,270,2013-02-02 19:55:00
3:15 PM,31.5,5.9,34,30.14,10.0,WSW,4.6,-,N/A,,Mostly Cloudy,240,2013-02-02 20:15:00
3:35 PM,31.1,5.0,33,30.14,10.0,West,9.2,-,N/A,,Overcast,260,2013-02-02 20:35:00
4:15 PM,30.7,6.4,36,30.12,10.0,WSW,8.1,-,N/A,,Overcast,250,2013-02-02 21:15:00
4:35 PM,30.4,7.0,37,30.12,10.0,West,8.1,-,N/A,,Overcast,270,2013-02-02 21:35:00
5:15 PM,30.0,8.6,41,30.11,10.0,West,9.2,-,N/A,,Overcast,270,2013-02-02 22:15:00
5:35 PM,29.8,8.6,41,30.11,10.0,West,5.8,-,N/A,,Overcast,260,2013-02-02 22:35:00
5:55 PM,29.3,9.5,44,30.11,10.0,West,5.8,-,N/A,,Overcast,280,2013-02-02 22:55:00
6:15 PM,29.1,10.4,46,30.10,10.0,West,8.1,-,N/A,,Overcast,280,2013-02-02 23:15:00
6:55 PM,29.1,10.9,47,30.11,10.0,West,6.9,-,N/A,,Overcast,270,2013-02-02 23:55:00
7:15 PM,29.3,11.5,47,30.10,10.0,West,5.8,-,N/A,,Overcast,260,2013-02-03 00:15:00
7:35 PM,29.3,11.7,48,30.10,10.0,WSW,3.5,-,N/A,,Overcast,250,2013-02-03 00:35:00
7:55 PM,29.1,14.5,55,30.10,10.0,SW,5.8,-,N/A,,Overcast,230,2013-02-03 00:55:00
8:35 PM,28.4,16.3,61,30.10,10.0,West,9.2,-,N/A,,Overcast,270,2013-02-03 01:35:00
8:55 PM,27.0,19.9,75,30.11,7.0,WNW,5.8,-,N/A,,Overcast,300,2013-02-03 01:55:00
9:15 PM,26.4,21.4,81,30.11,5.0,WNW,4.6,-,N/A,,Haze,300,2013-02-03 02:15:00
9:35 PM,26.4,21.9,83,30.11,5.0,WNW,4.6,-,N/A,Snow,Light Snow,300,2013-02-03 02:35:00
9:55 PM,26.2,22.3,85,30.11,3.0,WNW,4.6,-,N/A,Snow,Light Snow,290,2013-02-03 02:55:00
10:15 PM,26.1,22.5,86,30.10,3.0,Calm,Calm,-,N/A,Snow,Light Snow,0,2013-02-03 03:15:00
10:35 PM,25.9,22.8,88,30.10,3.0,Calm,Calm,-,N/A,Snow,Light Snow,0,2013-02-03 03:35:00
10:55 PM,25.7,22.8,89,30.09,3.0,Calm,Calm,-,N/A,Snow,Light Snow,0,2013-02-03 03:55:00
11:15 PM,25.9,22.8,88,30.08,2.5,Calm,Calm,-,N/A,Snow,Light Snow,0,2013-02-03 04:15:00
11:35 PM,25.7,23.0,89,30.07,4.0,Calm,Calm,-,N/A,,Overcast,0,2013-02-03 04:35:00
11:55 PM,26.2,23.5,90,30.07,5.0,Calm,Calm,-,N/A,,Overcast,0,2013-02-03 04:55:00